IRIDIUM 106 1 41917U 17003A 26095.60599550 .00000137 00000+0 41728-4 0 9990 2 41917 86.3933 118.9096 0002596 97.4641 262.6850 14.34217431482804 IRIDIUM 103 1 41918U 17003B 26095.59330898 .00000073 00000+0 18889-4 0 9998 2 41918 86.3932 118.8149 0001991 96.2570 263.8852 14.34217234482826 IRIDIUM 109 1 41919U 17003C 26095.59965528 .00000000 00000+0 -69538-5 0 9992 2 41919 86.3935 118.8704 0002104 93.8826 266.2611 14.34217664482794 IRIDIUM 102 1 41920U 17003D 26095.56794120 .00000088 00000+0 24342-4 0 9997 2 41920 86.3933 118.8088 0002337 91.2809 268.8655 14.34217521482877 IRIDIUM 105 1 41921U 17003E 26095.39079329 .00000168 00000+0 52786-4 0 9998 2 41921 86.3916 87.3136 0002248 92.4445 267.7008 14.34397778484700 IRIDIUM 104 1 41922U 17003F 26095.58062686 .00000029 00000+0 32301-5 0 9996 2 41922 86.3935 118.8452 0001976 90.5037 269.6385 14.34217232482866 IRIDIUM 114 1 41923U 17003G 26095.58696995 .00000027 00000+0 26641-5 0 9991 2 41923 86.3934 118.8260 0002061 94.1813 265.9618 14.34217768482841 IRIDIUM 108 1 41924U 17003H 26095.40595433 .00000073 00000+0 18993-4 0 9999 2 41924 86.3912 87.1978 0002326 87.0247 273.1215 14.34219044484674 IRIDIUM 112 1 41925U 17003J 26095.57428501 .00000001 00000+0 -65581-5 0 9997 2 41925 86.3932 118.6766 0002035 90.8508 269.2921 14.34217515482861 IRIDIUM 111 1 41926U 17003K 26095.56159979 .00000024 00000+0 16615-5 0 9995 2 41926 86.3932 118.7509 0002221 94.3377 265.8072 14.34217803482845 IRIDIUM 113 1 42803U 17039A 26095.19272156 -.00000174 00000+0 -69142-4 0 9991 2 42803 86.4017 352.6888 0001785 79.8774 280.2623 14.34218929460723 IRIDIUM 123 1 42804U 17039B 26095.51327376 .00000365 00000+0 12335-3 0 9994 2 42804 86.4002 23.9991 0002083 95.7661 264.3773 14.34219720459531 IRIDIUM 120 1 42805U 17039C 26095.60499093 -.00000133 00000+0 -54540-4 0 9991 2 42805 86.4008 352.3089 0002217 85.0570 275.0879 14.34217042460774 IRIDIUM 115 1 42806U 17039D 26095.18252897 .00000561 00000+0 16069-3 0 9990 2 42806 86.4551 352.6042 0002345 93.2036 266.9434 14.43280292463732 IRIDIUM 118 1 42807U 17039E 26095.54498499 -.00000052 00000+0 -25788-4 0 9997 2 42807 86.4014 23.9838 0002059 84.4196 275.7235 14.34219258459533 IRIDIUM 117 1 42808U 17039F 26095.49424484 .00000294 00000+0 98018-4 0 9997 2 42808 86.4014 23.9635 0002157 89.0575 271.0868 14.34219545459552 IRIDIUM 126 1 42809U 17039G 26095.31030997 .00000129 00000+0 39174-4 0 9996 2 42809 86.4015 24.0900 0002049 87.2691 272.8739 14.34219087459502 IRIDIUM 124 1 42810U 17039H 26095.60185086 .00000490 00000+0 13971-3 0 9997 2 42810 86.4486 320.7307 0002151 88.7705 271.3743 14.43296176464643 IRIDIUM 128 1 42811U 17039J 26095.44058524 .00000342 00000+0 11520-3 0 9990 2 42811 86.3958 55.5513 0002417 88.9757 271.1716 14.34219661459559 IRIDIUM 121 1 42812U 17039K 26095.53864095 .00000038 00000+0 66565-5 0 9992 2 42812 86.4017 24.0219 0002245 84.7148 275.4304 14.34218773459416 IRIDIUM 133 1 42955U 17061A 26095.40253185 -.00000144 00000+0 -58399-4 0 9998 2 42955 86.3956 55.6835 0002145 87.8438 272.3003 14.34217390444346 IRIDIUM 100 1 42956U 17061B 26095.60549386 .00000059 00000+0 13923-4 0 9999 2 42956 86.3955 55.5185 0002221 89.0064 271.1387 14.34217910444370 IRIDIUM 122 1 42957U 17061C 26095.43424367 .00000153 00000+0 47473-4 0 9994 2 42957 86.3958 55.5901 0002144 88.3291 271.8150 14.34217538444357 IRIDIUM 129 1 42958U 17061D 26095.59914821 .00000387 00000+0 13120-3 0 9991 2 42958 86.3959 55.5875 0002047 79.2859 280.8568 14.34220009444394 IRIDIUM 119 1 42959U 17061E 26095.42790163 .00000018 00000+0 -62392-6 0 9995 2 42959 86.3961 55.6547 0002047 87.0295 273.1135 14.34217498444388 IRIDIUM 107 1 42960U 17061F 26095.58647809 .00000433 00000+0 14740-3 0 9993 2 42960 86.3961 55.6092 0002214 94.6396 265.5052 14.34215510444417 IRIDIUM 132 1 42961U 17061G 26095.59280694 .00000426 00000+0 14496-3 0 9990 2 42961 86.3959 55.5864 0002241 88.9382 271.2070 14.34220042444412 IRIDIUM 136 1 42962U 17061H 26095.41521586 .00000427 00000+0 14546-3 0 9997 2 42962 86.3959 55.6670 0002203 89.6691 270.4757 14.34214627444402 IRIDIUM 139 1 42963U 17061J 26095.42155424 .00000359 00000+0 12108-3 0 9999 2 42963 86.3959 55.7251 0002309 88.8598 271.2862 14.34214676444414 IRIDIUM 125 1 42964U 17061K 26095.40887290 .00000028 00000+0 29740-5 0 9996 2 42964 86.3961 55.7902 0001760 97.2550 262.8846 14.34217469444425 IRIDIUM 135 1 43070U 17083A 26095.24346171 .00000173 00000+0 54853-4 0 9992 2 43070 86.4017 352.5095 0002175 85.0442 275.1002 14.34218764433691 IRIDIUM 138 1 43071U 17083B 26095.61767442 .00000073 00000+0 18994-4 0 9997 2 43071 86.4027 352.0377 0001751 82.2359 277.9035 14.34218021433733 IRIDIUM 116 1 43072U 17083C 26095.44642487 .00000384 00000+0 13021-3 0 9990 2 43072 86.4015 352.4117 0002404 87.3256 272.8215 14.34219260433746 IRIDIUM 130 1 43073U 17083D 26095.27517516 .00000151 00000+0 46698-4 0 9995 2 43073 86.4024 352.7511 0002272 91.5320 268.6136 14.34218414433666 IRIDIUM 151 1 43074U 17083E 26095.45910960 .00000116 00000+0 34524-4 0 9992 2 43074 86.4015 352.4626 0002240 84.8729 275.2722 14.34216910433714 IRIDIUM 134 1 43075U 17083F 26095.42739781 .00000174 00000+0 55215-4 0 9994 2 43075 86.4015 352.4826 0002235 88.8323 271.3129 14.34218223433677 IRIDIUM 137 1 43076U 17083G 26095.23077796 .00000392 00000+0 13281-3 0 9993 2 43076 86.4020 352.6561 0002596 80.2964 279.8525 14.34221635433718 IRIDIUM 141 1 43077U 17083H 26095.43374162 .00000368 00000+0 12418-3 0 9997 2 43077 86.4014 352.4061 0002069 83.9518 276.1914 14.34219877433745 IRIDIUM 153 1 43078U 17083J 26095.10684400 .00000128 00000+0 38704-4 0 9992 2 43078 86.3966 321.0463 0001844 87.2333 272.9074 14.34218103434801 IRIDIUM 131 1 43079U 17083K 26095.14198051 .00000212 00000+0 68482-4 0 9999 2 43079 86.4021 352.7089 0002174 82.9511 277.1932 14.34218619433639 IRIDIUM 144 1 43249U 18030A 26095.60156704 .00000085 00000+0 23138-4 0 9998 2 43249 86.3964 320.7703 0002262 88.1345 272.0110 14.34217485419739 IRIDIUM 149 1 43250U 18030B 26095.60790931 .00000078 00000+0 20812-4 0 9994 2 43250 86.3961 320.7356 0002004 85.6803 274.4622 14.34217646419752 IRIDIUM 157 1 43251U 18030C 26095.55716630 .00000278 00000+0 92158-4 0 9997 2 43251 86.3962 320.8083 0002106 86.9592 273.1845 14.34219599419723 IRIDIUM 140 1 43252U 18030D 26095.57619653 -.00000051 00000+0 -25424-4 0 9990 2 43252 86.3964 320.8130 0002012 88.7167 271.4259 14.34217433419784 IRIDIUM 145 1 43253U 18030E 26095.63327905 .00000223 00000+0 72680-4 0 9999 2 43253 86.3963 320.7617 0002459 90.1675 269.9803 14.34219180419721 IRIDIUM 146 1 43254U 18030F 26095.61425171 .00000170 00000+0 53682-4 0 9994 2 43254 86.3963 320.7821 0002257 87.1386 273.0068 14.34218586419739 IRIDIUM 148 1 43255U 18030G 26095.58252902 .00000342 00000+0 11501-3 0 9995 2 43255 86.3964 320.8373 0002139 85.5933 274.5507 14.34222179419763 IRIDIUM 142 1 43256U 18030H 26095.62059400 .00000155 00000+0 48150-4 0 9992 2 43256 86.3958 320.7130 0002388 89.5862 270.5607 14.34218700419737 IRIDIUM 150 1 43257U 18030J 26095.58888151 .00000107 00000+0 30986-4 0 9996 2 43257 86.3966 320.8403 0002162 88.2432 271.9011 14.34218164419750 IRIDIUM 143 1 43258U 18030K 26095.56985313 .00000253 00000+0 83143-4 0 9998 2 43258 86.3967 320.9379 0002291 89.1681 270.9778 14.34217197419680 IRIDIUM 161 1 43478U 18047C 26095.51027244 .00000200 00000+0 53322-4 0 9993 2 43478 86.4453 118.8695 0002144 85.0606 275.0840 14.43278328414650 IRIDIUM 152 1 43479U 18047D 26095.47280275 .00000010 00000+0 -34119-5 0 9998 2 43479 86.3932 118.7454 0002001 91.3147 268.8278 14.34217637412060 IRIDIUM 147 1 43480U 18047E 26095.54891486 .00000042 00000+0 77946-5 0 9999 2 43480 86.3931 118.7177 0002378 92.5247 267.6221 14.34217932412078 IRIDIUM 110 1 43481U 18047F 26095.55525651 .00000014 00000+0 -21752-5 0 9993 2 43481 86.3932 118.8049 0001969 85.6061 274.5360 14.34217715412060 IRIDIUM 162 1 43482U 18047G 26095.57329114 .00000198 00000+0 52947-4 0 9993 2 43482 86.4453 118.7349 0002244 94.9373 265.2084 14.43277328414651 IRIDIUM 160 1 43569U 18061A 26095.50109238 .00000041 00000+0 74129-5 0 9995 2 43569 86.3914 87.1923 0002212 86.4080 273.7369 14.34217917402959 IRIDIUM 166 1 43570U 18061B 26095.45669529 .00000015 00000+0 -17167-5 0 9996 2 43570 86.3911 87.1625 0002240 89.8530 270.2923 14.34217603402977 IRIDIUM 158 1 43571U 18061C 26095.49475002 -.00000011 00000+0 -11097-4 0 9994 2 43571 86.3911 87.1565 0002010 92.1965 267.9461 14.34217339402948 IRIDIUM 165 1 43572U 18061D 26095.52012006 -.00000022 00000+0 -14851-4 0 9993 2 43572 86.3915 87.1910 0002254 89.8287 270.3167 14.34217304402973 IRIDIUM 155 1 43573U 18061E 26095.48206450 .00000005 00000+0 -52058-5 0 9999 2 43573 86.3909 87.0794 0002148 93.4672 266.6770 14.34217560402935 IRIDIUM 154 1 43574U 18061F 26095.39326899 .00000008 00000+0 -43131-5 0 9995 2 43574 86.3913 87.2464 0002420 89.3085 270.8388 14.34217682402973 IRIDIUM 163 1 43575U 18061G 26095.51377746 .00000015 00000+0 -16730-5 0 9990 2 43575 86.3911 87.1137 0002032 90.3334 269.8095 14.34217532402962 IRIDIUM 156 1 43576U 18061H 26095.48840564 .00000109 00000+0 31883-4 0 9998 2 43576 86.3909 87.1314 0002278 93.7096 266.4361 14.34217491402953 IRIDIUM 164 1 43577U 18061J 26095.46937956 -.00000034 00000+0 -19286-4 0 9991 2 43577 86.3912 87.1789 0002268 86.0516 274.0939 14.34217408402993 IRIDIUM 159 1 43578U 18061K 26095.50743431 .00000034 00000+0 51322-5 0 9996 2 43578 86.3911 87.1010 0002134 86.2560 273.8880 14.34217913402963 IRIDIUM 180 1 43922U 19002A 26095.50693122 .00000224 00000+0 73060-4 0 9999 2 43922 86.4016 23.9623 0002149 82.0267 278.1173 14.34218062378573 IRIDIUM 176 1 43923U 19002B 26095.29760546 .00001504 00000+0 23459-3 0 9999 2 43923 86.6136 24.0034 0002665 85.4816 274.6706 14.72254562388523 IRIDIUM 168 1 43924U 19002C 26095.50058769 .00000342 00000+0 11508-3 0 9992 2 43924 86.4019 24.0401 0002160 85.5657 274.5785 14.34216982378554 IRIDIUM 173 1 43925U 19002D 26095.55767184 .00000139 00000+0 42627-4 0 9997 2 43925 86.4017 23.9083 0002106 86.8420 273.3017 14.34218331378543 IRIDIUM 169 1 43926U 19002E 26095.42735048 .00000505 00000+0 15870-3 0 9994 2 43926 86.4214 55.5991 0002148 104.8740 255.2697 14.38610094379768 IRIDIUM 172 1 43927U 19002F 26095.55132920 .00000125 00000+0 37607-4 0 9990 2 43927 86.4012 23.9186 0002122 81.8631 278.2806 14.34218495378553 IRIDIUM 175 1 43928U 19002G 26095.56370381 .00000483 00000+0 13670-3 0 9997 2 43928 86.4515 320.8986 0005317 97.3281 262.8524 14.43584214388508 IRIDIUM 171 1 43929U 19002H 26095.53230008 .00000210 00000+0 67757-4 0 9990 2 43929 86.4024 24.2250 0002354 88.7715 271.3750 14.34217495378540 IRIDIUM 170 1 43930U 19002J 26095.30380194 .00001554 00000+0 24255-3 0 9996 2 43930 86.6134 24.0037 0002363 81.4529 278.6956 14.72256193388538 IRIDIUM 167 1 43931U 19002K 26095.31665469 .00000414 00000+0 14076-3 0 9993 2 43931 86.4014 24.0383 0002431 92.1073 268.0401 14.34216981378511 IRIDIUM 181 1 56726U 23068S 26095.51858009 .00000299 00000+0 82785-4 0 9996 2 56726 86.4448 87.1709 0002455 81.9399 278.2081 14.43309119151953 IRIDIUM 177 1 56727U 23068T 26095.24526236 .00001081 00000+0 13870-3 0 9999 2 56727 86.2018 3.4263 0002151 88.0731 272.0736 14.80237675155571 IRIDIUM 174 1 56728U 23068U 26095.29144755 .00001629 00000+0 25445-3 0 9996 2 56728 86.6142 24.1488 0002186 81.2112 278.9353 14.72245084155292 IRIDIUM 178 1 56729U 23068V 26095.36955165 .00000912 00000+0 11653-3 0 9990 2 56729 86.6526 55.7786 0002849 86.0252 274.1295 14.80234710155593 IRIDIUM 179 1 56730U 23068W 26095.43177543 .00001993 00000+0 25875-3 0 9997 2 56730 86.6756 64.5200 0002841 95.3981 264.7565 14.80241975155601